Wind_Speed
10 10 10 10 10 10 9 9 8 8 8 7 7 8 9 9 9 9 10 11 10 10 10 10 9 10 10 10 10 10 9 10 10 10 9 9 8 8 7 7 6 5 5 5
10 10 10 10 10 10 9 9 8 9 8 8 8 8 9 10 10 9 10 10 11 11 10 10 10 10 9 10 10 10 10 9 9 9 8 9 8 8 8 7 7 6 6 6
11 10 10 10 10 10 10 10 9 9 9 8 9 9 9 10 10 10 10 10 11 11 11 11 11 10 10 10 11 11 10 10 9 9 9 9 9 8 8 7 7 6 5 6
11 11 11 11 11 11 11 10 10 9 9 9 8 9 9 10 9 10 10 10 10 11 11 10 10 10 10 11 11 11 10 10 10 10 10 9 9 9 9 8 7 6 6 6
11 12 11 11 11 11 11 11 10 10 10 10 9 9 8 9 9 9 9 10 10 10 10 10 11 11 11 11 11 11 11 10 11 10 10 10 10 10 9 9 8 7 6 6
13 12 12 11 11 11 11 11 11 11 11 10 9 9 8 9 9 10 9 9 10 10 10 10 11 11 11 11 11 11 11 11 10 10 10 11 11 10 10 9 8 8 7 7
14 13 13 13 12 12 12 12 11 11 11 10 9 9 7 8 9 10 10 10 10 11 11 11 11 12 12 12 12 12 12 11 11 11 12 11 11 11 11 10 9 9 8 8
15 14 14 13 13 13 13 13 12 12 11 10 9 9 7 8 8 9 10 10 10 10 11 12 12 12 12 13 13 13 13 13 12 12 12 12 12 12 12 12 10 9 9 9
16 15 14 14 14 14 14 14 13 13 12 11 10 8 8 8 8 8 9 9 8 9 11 12 12 12 12 13 13 13 13 13 12 13 13 13 13 12 13 12 11 10 9 8
17 16 15 15 15 15 15 15 15 14 13 12 11 9 8 8 9 9 9 9 9 10 10 11 11 12 12 12 12 12 12 13 12 13 13 13 13 13 13 13 12 11 10 10
18 18 17 17 16 16 16 16 16 15 15 14 12 10 9 9 10 10 10 10 10 10 10 10 11 11 11 12 12 12 12 12 12 12 13 13 13 13 13 12 12 12 11 11
18 19 18 17 17 17 17 17 17 17 16 15 13 11 11 11 10 11 11 10 11 11 11 11 11 11 11 12 12 12 12 12 12 13 13 13 13 13 13 13 13 12 12 11
19 20 19 19 19 18 18 18 18 18 18 17 15 13 13 12 11 11 12 12 12 12 11 11 11 11 12 13 13 13 13 13 13 12 12 13 13 13 12 12 12 12 11 11
21 21 21 20 19 19 19 19 19 19 19 17 15 14 14 13 12 11 12 12 12 12 12 12 12 12 12 13 13 13 13 13 13 13 13 13 13 13 13 12 12 13 12 12
22 22 22 21 20 20 20 20 19 19 18 17 15 15 14 14 13 12 12 12 12 12 12 12 12 13 13 13 13 13 13 13 14 14 14 13 13 14 13 13 13 13 13 13
23 22 22 22 22 22 21 21 20 19 18 17 16 15 15 15 14 14 13 12 12 12 12 13 13 13 14 14 14 14 14 14 14 14 14 14 14 14 14 14 14 14 14 14
23 22 22 22 22 23 22 20 19 18 18 17 17 16 16 16 15 14 14 13 13 12 12 12 13 14 14 14 14 14 14 14 14 15 14 15 15 15 15 15 16 16 16 16
23 23 22 22 22 24 19 20 19 18 18 18 17 17 16 16 16 15 15 15 14 14 13 13 13 14 14 14 14 14 14 14 14 15 15 15 16 16 16 17 17 17 17 17
24 24 24 24 23 22 19 20 19 19 19 18 17 17 17 17 16 15 15 15 15 14 14 14 14 14 14 14 14 15 15 14 14 15 16 16 17 17 17 17 18 18 18 18
24 24 25 25 24 22 19 19 20 20 20 18 18 17 17 17 16 15 15 15 15 15 15 15 15 15 14 14 14 15 15 15 15 15 15 15 16 17 17 18 18 18 18 18
23 23 24 24 24 22 20 20 21 20 18 19 19 18 18 18 16 15 16 16 15 15 15 15 15 14 15 15 15 15 16 16 16 16 16 15 16 16 17 17 18 18 18 19
24 23 24 24 25 22 21 21 21 19 20 19 19 19 19 19 18 17 17 17 16 16 16 16 15 15 16 16 16 17 17 17 18 17 17 17 17 18 18 18 19 19 19 19
25 24 24 25 24 23 23 22 21 21 20 20 20 20 20 20 19 18 18 18 18 17 17 17 17 16 17 17 17 17 18 18 19 18 18 18 18 18 19 19 20 20 20 20
26 25 25 26 25 25 24 23 22 22 21 22 22 22 21 21 20 19 19 19 19 19 19 18 18 18 17 18 18 19 19 19 19 19 20 20 20 20 20 21 21 21 21 22
26 27 26 26 26 26 25 24 24 23 22 23 23 23 23 22 21 21 21 21 21 21 20 20 19 19 19 19 19 20 20 20 20 21 21 22 22 22 22 23 23 23 23 24
27 27 27 26 26 27 26 25 26 25 24 24 25 24 24 23 23 23 23 23 23 23 23 22 21 20 20 20 21 21 22 22 22 22 23 24 24 24 24 24 24 24 25 25
Wind_Direction
234 232 230 228 228 231 234 232 233 237 234 234 231 232 231 227 225 221 220 218 221 224 222 221 218 215 212 212 211 215 217 216 216 221 222 226 227 228 230 232 239 251 264 275
234 232 230 230 232 234 234 233 235 236 236 236 235 236 238 231 229 226 225 224 224 228 225 221 217 215 212 213 213 217 220 217 215 219 221 224 225 225 229 230 237 248 261 276
234 232 230 231 235 237 236 235 236 241 246 246 244 241 240 235 235 231 229 228 228 229 226 221 220 219 215 214 214 219 223 222 222 220 222 225 227 228 228 231 238 246 257 273
228 228 230 232 237 236 235 237 240 245 245 246 247 245 241 237 237 234 232 229 230 231 232 224 220 222 219 216 216 221 222 225 224 223 227 227 227 229 232 235 240 249 261 274
229 227 229 231 235 235 234 236 240 243 244 247 248 250 239 239 237 235 232 230 231 233 233 226 221 222 221 219 219 222 224 227 227 228 232 232 230 230 234 237 241 249 260 271
231 230 230 230 232 234 235 238 242 242 244 246 248 250 238 241 236 234 231 231 231 234 234 228 224 223 224 221 219 221 224 227 228 230 230 234 236 232 235 239 243 252 261 267
233 232 231 231 232 234 235 237 238 241 245 250 250 250 244 244 238 235 232 233 234 236 236 231 228 227 226 225 224 226 226 227 230 232 232 239 239 238 239 240 245 252 261 266
235 232 233 232 233 235 236 237 241 246 249 249 248 248 242 243 238 236 233 233 236 238 237 233 232 230 229 230 230 229 230 231 234 235 235 239 241 241 243 244 248 253 260 265
236 235 233 233 233 234 235 238 241 246 249 248 247 245 242 240 240 236 234 234 237 239 237 232 231 230 230 232 232 231 231 231 234 236 237 240 242 242 243 246 250 254 261 264
237 237 236 234 234 235 236 237 239 244 247 247 245 246 246 245 242 239 240 239 241 240 238 236 234 231 231 232 232 230 231 233 237 238 240 241 243 243 243 246 248 254 259 263
236 237 236 235 236 236 236 238 241 243 246 249 247 244 246 246 244 243 242 243 243 242 239 237 237 235 233 232 233 233 232 235 239 241 243 244 245 246 246 247 248 253 257 265
238 239 238 237 237 236 237 239 240 243 246 248 248 242 243 245 244 246 246 243 243 244 242 240 240 240 237 237 237 238 236 238 242 243 245 246 246 246 246 247 250 254 260 264
240 241 240 238 237 238 240 240 242 243 245 246 247 244 245 245 243 245 248 246 244 244 244 244 244 243 241 239 239 239 240 241 244 246 249 247 246 246 247 248 252 258 259 260
242 242 242 242 242 242 243 241 241 244 246 246 245 242 243 243 241 243 246 246 247 246 245 245 245 246 245 241 239 239 241 243 245 247 251 250 250 250 252 252 255 260 260 263
242 242 243 242 242 243 244 244 243 244 245 245 242 240 241 240 239 242 245 246 246 247 244 245 246 246 245 243 241 241 243 246 246 247 251 251 252 253 254 256 259 262 263 266
240 242 241 242 243 244 242 242 243 242 241 243 243 239 240 240 241 241 245 245 245 247 246 244 245 245 245 244 244 244 247 248 248 248 252 253 254 255 256 259 263 264 265 267
239 240 241 242 242 243 241 240 240 241 243 245 244 240 240 240 241 241 242 242 244 245 245 245 246 246 244 244 245 246 248 249 250 250 252 254 255 257 259 261 263 265 265 267
239 240 241 241 239 242 241 239 239 241 242 242 240 237 237 239 240 241 239 240 243 245 245 245 245 246 247 246 247 248 247 248 250 252 254 256 256 258 261 262 264 265 266 266
238 239 240 240 242 242 238 238 238 239 239 240 240 239 238 239 240 241 240 241 245 246 246 245 244 245 247 248 249 249 250 250 252 257 259 260 258 259 261 264 266 266 265 266
238 239 240 240 242 242 238 239 239 239 237 238 238 237 238 239 242 241 241 242 245 246 248 250 248 247 248 250 251 252 253 253 255 259 262 264 264 262 262 264 267 266 263 266
238 238 239 240 242 242 238 239 240 239 239 240 240 239 240 241 243 242 241 242 244 245 248 250 249 248 249 250 251 254 255 256 258 260 263 265 266 265 265 267 269 269 268 270
240 240 240 240 240 239 238 239 239 240 240 241 241 241 241 242 242 242 242 242 242 245 248 251 251 251 252 253 254 256 256 256 259 261 263 265 267 267 266 268 271 271 271 271
241 242 241 239 238 238 237 239 241 240 240 240 241 241 242 242 242 243 241 242 243 245 247 250 250 251 254 255 257 257 257 258 261 263 265 266 267 269 270 270 272 272 271 272
240 242 243 239 235 235 237 239 241 241 241 242 242 242 243 244 244 243 242 242 244 246 248 250 250 251 254 256 257 258 258 260 262 264 266 267 268 270 271 273 274 273 272 273
240 242 243 240 236 235 235 238 241 242 242 243 243 243 243 243 244 244 243 244 246 247 249 250 251 253 255 256 258 260 261 261 262 264 267 268 270 272 273 274 276 276 273 274
242 245 244 239 237 237 236 240 242 242 242 243 244 243 243 245 245 245 246 246 248 249 250 250 252 255 257 259 261 263 263 262 262 265 267 269 270 272 274 276 278 277 275 274
Height
5844 5846 5846 5848 5849 5850 5851 5852 5853 5854 5854 5855 5856 5856 5857 5858 5859 5860 5861 5861 5863 5864 5865 5866 5867 5867 5869 5870 5871 5873 5874 5875 5876 5878 5879 5880 5882 5882 5883 5884 5884 5884 5884 5884
5843 5844 5845 5846 5847 5848 5850 5851 5852 5852 5853 5854 5854 5855 5856 5856 5857 5858 5859 5860 5861 5862 5863 5864 5865 5866 5867 5868 5870 5871 5873 5874 5875 5877 5878 5879 5880 5881 5882 5882 5883 5883 5883 5883
5841 5843 5843 5845 5846 5847 5848 5850 5851 5851 5852 5852 5853 5855 5855 5855 5856 5857 5858 5859 5860 5861 5862 5863 5864 5865 5866 5867 5868 5870 5872 5873 5874 5875 5876 5878 5879 5880 5881 5881 5882 5882 5882 5882
5839 5840 5842 5843 5844 5845 5847 5848 5849 5850 5851 5851 5853 5853 5854 5854 5854 5855 5857 5857 5858 5859 5860 5861 5862 5864 5865 5866 5867 5869 5870 5872 5873 5874 5875 5876 5877 5878 5879 5880 5880 5881 5881 5880
5837 5838 5840 5841 5843 5844 5845 5846 5847 5848 5849 5850 5851 5852 5853 5852 5853 5854 5855 5856 5857 5858 5859 5860 5861 5862 5863 5865 5866 5867 5869 5870 5871 5872 5873 5874 5875 5876 5877 5878 5879 5879 5879 5879
5835 5836 5838 5839 5841 5842 5844 5845 5845 5846 5847 5849 5849 5850 5851 5851 5851 5852 5854 5854 5855 5856 5857 5858 5859 5861 5862 5863 5865 5866 5867 5868 5869 5870 5871 5872 5873 5874 5875 5876 5877 5877 5878 5877
5832 5834 5835 5837 5839 5840 5842 5843 5844 5844 5845 5847 5848 5848 5850 5849 5850 5850 5852 5853 5854 5854 5855 5856 5858 5859 5860 5862 5863 5864 5865 5866 5868 5869 5870 5871 5872 5873 5874 5874 5875 5876 5876 5876
5829 5831 5833 5835 5836 5838 5839 5841 5843 5843 5844 5845 5846 5846 5849 5848 5848 5849 5850 5851 5852 5853 5853 5854 5856 5857 5858 5860 5861 5862 5863 5864 5866 5867 5868 5869 5870 5871 5872 5872 5873 5873 5874 5874
5826 5829 5830 5832 5833 5835 5836 5838 5840 5841 5842 5843 5844 5845 5847 5847 5847 5847 5848 5849 5850 5851 5851 5852 5853 5855 5856 5857 5859 5860 5861 5862 5863 5864 5866 5867 5868 5868 5869 5870 5871 5871 5872 5872
5823 5825 5827 5829 5830 5832 5834 5835 5837 5838 5839 5840 5842 5843 5845 5845 5845 5846 5847 5847 5848 5849 5849 5850 5851 5853 5854 5855 5856 5858 5859 5860 5861 5862 5863 5864 5865 5866 5867 5867 5868 5869 5869 5870
5819 5822 5824 5825 5827 5829 5831 5832 5833 5835 5836 5838 5839 5843 5843 5843 5843 5844 5844 5845 5846 5847 5847 5848 5849 5850 5851 5853 5854 5855 5856 5858 5858 5860 5861 5862 5863 5863 5864 5865 5865 5866 5867 5867
5815 5817 5819 5822 5824 5825 5827 5828 5830 5832 5834 5835 5837 5842 5840 5840 5841 5841 5842 5843 5844 5844 5845 5846 5847 5848 5849 5850 5852 5853 5854 5855 5856 5857 5858 5859 5860 5861 5861 5862 5863 5863 5864 5864
5811 5813 5815 5817 5821 5822 5823 5825 5826 5828 5830 5831 5833 5839 5837 5838 5838 5839 5840 5840 5841 5842 5843 5844 5845 5846 5847 5848 5849 5850 5851 5852 5853 5854 5855 5856 5857 5858 5858 5859 5860 5860 5861 5861
5807 5808 5811 5814 5815 5817 5818 5821 5822 5824 5825 5828 5830 5833 5834 5834 5835 5836 5837 5838 5838 5839 5840 5841 5842 5843 5844 5845 5846 5847 5848 5850 5851 5852 5852 5853 5854 5855 5855 5856 5857 5858 5858 5858
5801 5803 5805 5808 5810 5812 5814 5816 5818 5819 5822 5824 5827 5828 5830 5831 5832 5833 5834 5835 5835 5836 5837 5838 5839 5840 5841 5842 5843 5844 5845 5846 5847 5849 5849 5850 5851 5852 5852 5853 5854 5854 5855 5855
5795 5797 5800 5803 5805 5806 5808 5811 5813 5815 5817 5820 5822 5824 5826 5827 5828 5829 5831 5831 5832 5833 5834 5835 5836 5837 5838 5839 5840 5841 5842 5843 5844 5845 5846 5847 5848 5848 5849 5850 5850 5851 5851 5851
5790 5792 5794 5797 5799 5801 5803 5807 5808 5811 5813 5816 5818 5821 5821 5823 5824 5826 5827 5828 5829 5830 5831 5832 5833 5834 5835 5835 5836 5837 5838 5839 5840 5841 5842 5843 5844 5845 5845 5846 5847 5847 5847 5847
5784 5786 5788 5791 5794 5795 5802 5802 5804 5806 5809 5810 5813 5815 5817 5818 5820 5821 5823 5824 5825 5826 5827 5828 5829 5830 5831 5832 5833 5834 5835 5836 5837 5838 5839 5839 5840 5841 5841 5842 5842 5842 5843 5843
5779 5781 5783 5785 5787 5791 5796 5797 5799 5802 5804 5806 5808 5810 5812 5814 5815 5817 5819 5820 5821 5822 5823 5824 5825 5826 5827 5828 5829 5830 5831 5832 5833 5834 5834 5835 5836 5836 5837 5837 5838 5838 5838 5838
5773 5775 5778 5780 5782 5785 5791 5793 5794 5797 5799 5802 5803 5806 5807 5809 5811 5814 5814 5815 5816 5818 5819 5820 5821 5822 5823 5824 5825 5826 5827 5828 5829 5830 5830 5830 5831 5831 5832 5833 5833 5833 5833 5833
5767 5769 5771 5773 5775 5780 5785 5787 5789 5793 5796 5797 5799 5801 5803 5805 5807 5809 5809 5811 5812 5813 5815 5816 5817 5818 5819 5820 5821 5822 5823 5824 5825 5825 5826 5826 5826 5827 5827 5828 5828 5828 5828 5828
5761 5763 5765 5767 5770 5776 5779 5781 5784 5787 5789 5791 5793 5795 5798 5800 5802 5803 5805 5806 5807 5809 5810 5811 5813 5814 5815 5816 5817 5818 5819 5819 5820 5821 5821 5821 5822 5822 5822 5822 5822 5822 5822 5822
5755 5758 5759 5762 5767 5770 5773 5775 5778 5780 5783 5785 5788 5790 5792 5794 5796 5798 5800 5801 5803 5804 5805 5807 5808 5809 5810 5811 5812 5813 5814 5814 5815 5816 5816 5816 5817 5817 5817 5817 5817 5816 5817 5817
5748 5750 5753 5755 5759 5763 5766 5769 5772 5774 5777 5779 5782 5784 5786 5789 5791 5793 5795 5796 5798 5799 5800 5802 5803 5804 5805 5806 5807 5807 5808 5809 5810 5810 5811 5811 5811 5811 5811 5811 5811 5811 5811 5811
5742 5744 5746 5749 5753 5756 5759 5762 5765 5768 5770 5772 5775 5778 5780 5783 5785 5787 5789 5790 5792 5793 5795 5796 5797 5799 5800 5801 5801 5802 5803 5804 5804 5805 5805 5805 5805 5805 5805 5805 5804 5804 5804 5804
5735 5737 5740 5743 5746 5749 5753 5755 5758 5760 5763 5766 5768 5771 5773 5776 5778 5780 5782 5784 5785 5787 5789 5790 5792 5793 5794 5795 5795 5796 5797 5797 5798 5799 5799 5799 5799 5799 5798 5798 5797 5797 5797 5796